Location: Baia Mare
(47.6567°N, 23.5850°E)
Time: 16:57:00
(UTC+03:00)

ISS - Pass Details

Date: 18 July 2018
Orbit: 402 x 408 km, 51.6° (Epoch: 23 July)

Event Time Altitude Azimuth Distance (km) Brightness Sun altitude
Exits shadow 01:50:02 22° 285° (WNW) 962 -1.9 -21.1°
Maximum altitude 01:51:52 45° 349° (N) 563 -2.7 -21.1°
Drops below altitude 10° 01:55:04 10° 64° (ENE) 1,472 -0.6 -21.1°
Sets 01:57:13 0° 71° (ENE) 2,334 0.4 -21.0°
